Flag for Brazil Weather past 2 weeks in Porto Velho, Rondônia, Brazil

Now
73 °F

Partly cloudy.


Feels Like: 70 °F
Forecast: 74 / 84 °F
Wind: 5 mph from South

Location: Porto Velho Aeroporto

Current Time: Mar 29, 2015 at 2:42:49 AM

Latest Report: Mar 29, 2015 at 2:00 AM


Visibility: N/A

Pressure: 29.89 "Hg

Humidity: 94%

Dew point: 72 °F

Location of Porto VelhoLocation

Historic Weather in Porto Velho — Graph

°F

Porto Velho temperature yesterday

Maximum temperature yesterday: 88 °F (at 1:00 PM)
Minimum temperature yesterday: 73 °F (at 1:00 AM)
Average temperature yesterday: 77 °F

Past Weeks' High & Low Weather Summary

 TemperatureHumidityPressure
High91 °F (Mar 27, 4:00 PM)100% (Mar 14, 12:00 PM)29.98 "Hg (Mar 14, 12:00 PM)
Low41 °F (Mar 22, 6:00 PM)20% (Mar 19, 12:00 PM)29.71 "Hg (Mar 14, 4:00 PM)
Average77 °F87%29.86 "Hg
* Reported Mar 14 1:00 AM — Mar 29 1:00 AM, Porto Velho, Weather by CustomWeather, © 2015

Note: Actual official high and low records may vary slightly from our data, if they occured in-between our weather recording intervals... More about our weather records

Advertising

Porto Velho weather history for previous 24 hours

 ConditionsComfort  
Time TempWeatherWind HumidityBarometerVisibility
1:00 AM
Sun, Mar 29
73 °FPartly cloudy.No wind94%29.95 "HgN/A
12:00 AM73 °FPartly cloudy.No wind94%29.95 "HgN/A
11:00 PM
Sat, Mar 28
73 °FThunderstorms. Partly cloudy.2 mph94%N/A2 mi
10:00 PM75 °FThunderstorms. Partly cloudy.2 mph94%N/A5 mi
9:00 PM77 °FThunderstorms. Partly cloudy.2 mph89%29.92 "HgN/A
8:00 PM75 °FThundershowers. Partly cloudy.2 mph94%N/AN/A
7:00 PM75 °FThundershowers. Partly cloudy.No wind94%N/AN/A
6:00 PM77 °FBroken clouds.No wind89%29.83 "HgN/A
5:00 PM77 °FThunderstorms. Broken clouds.No wind94%29.80 "HgN/A
4:00 PM79 °FThunderstorms. Broken clouds.14 mph84%29.83 "HgN/A
3:00 PM77 °FThunderstorms. Broken clouds.6 mph83%29.83 "Hg5 mi
2:00 PM81 °FScattered showers. Partly sunny.6 mph89%29.86 "HgN/A
1:00 PM88 °FBroken clouds.2 mph62%29.89 "HgN/A
12:00 PM86 °FBroken clouds.2 mph62%29.95 "HgN/A
11:00 AM84 °FScattered clouds.2 mph70%29.98 "HgN/A
10:00 AM82 °FScattered clouds.2 mph74%29.98 "HgN/A
9:00 AM79 °FScattered clouds.2 mph79%29.98 "HgN/A
8:00 AM75 °FScattered clouds.No wind94%29.95 "HgN/A
7:00 AM73 °FPartly sunny.2 mph94%29.92 "HgN/A
6:00 AM73 °FLight rain. Passing clouds.2 mph94%29.92 "Hg5 mi
5:00 AM75 °FPassing clouds.7 mph94%29.92 "HgN/A
4:00 AM73 °FPassing clouds.5 mph94%29.89 "HgN/A
3:00 AM73 °FPassing clouds.6 mph94%29.92 "HgN/A
2:00 AM73 °FLight rain. Passing clouds.7 mph94%29.92 "Hg5 mi
Weather by CustomWeather, © 2015

See weather overviewHow to use our weather pages